Time,TemperatureF,DewpointF,PressureIn,WindDirection,WindDirectionDegrees,WindSpeedMPH,WindSpeedGustMPH,Humidity,HourlyPrecipIn,Conditions,Clouds,dailyrainin,SoftwareType,DateUTC
2013-03-01 00:02:00,64.0,54.0,29.93,West,273,1.0,1.0,71,0.00,,,0.37,,2013-03-01 05:02:00,
2013-03-01 00:11:00,64.0,54.0,29.93,West,273,1.0,1.0,71,0.00,,,0.37,,2013-03-01 05:11:00,
2013-03-01 00:22:00,64.0,56.0,29.93,SW,225,2.0,0.0,74,0.00,,,0.00,,2013-03-01 05:22:00,
2013-03-01 00:33:00,64.0,56.0,29.93,West,269,3.0,3.0,76,0.00,,,0.00,,2013-03-01 05:33:00,
2013-03-01 00:42:00,64.0,56.0,29.93,West,269,3.0,3.0,76,0.00,,,0.00,,2013-03-01 05:42:00,
2013-03-01 00:52:00,64.0,57.0,29.92,West,264,1.0,1.0,77,0.00,,,0.00,,2013-03-01 05:52:00,
2013-03-01 01:02:00,64.0,57.0,29.92,WNW,287,1.0,0.0,77,0.00,,,0.00,,2013-03-01 06:02:00,
2013-03-01 01:12:00,64.0,57.0,29.92,WNW,300,2.0,2.0,77,0.00,,,0.00,,2013-03-01 06:12:00,
2013-03-01 01:22:00,64.0,57.0,29.92,WNW,300,2.0,2.0,77,0.00,,,0.00,,2013-03-01 06:22:00,
2013-03-01 01:32:00,64.0,57.0,29.91,North,356,0.0,0.0,77,0.00,,,0.00,,2013-03-01 06:32:00,
2013-03-01 01:42:00,64.0,57.0,29.91,North,356,0.0,0.0,77,0.00,,,0.00,,2013-03-01 06:42:00,
2013-03-01 01:53:00,64.0,57.0,29.91,WNW,288,1.0,0.0,78,0.00,,,0.00,,2013-03-01 06:53:00,
2013-03-01 02:02:00,64.0,57.0,29.91,NW,316,0.0,1.0,78,0.00,,,0.00,,2013-03-01 07:02:00,
2013-03-01 02:12:00,64.0,57.0,29.91,NW,316,0.0,1.0,78,0.00,,,0.00,,2013-03-01 07:12:00,
2013-03-01 02:22:00,64.0,57.0,29.91,WSW,256,0.0,0.0,79,0.00,,,0.00,,2013-03-01 07:22:00,
2013-03-01 02:32:00,64.0,57.0,29.91,WNW,302,1.0,1.0,79,0.00,,,0.00,,2013-03-01 07:32:00,
2013-03-01 02:42:00,64.0,57.0,29.91,WNW,302,1.0,1.0,79,0.00,,,0.00,,2013-03-01 07:42:00,
2013-03-01 02:52:00,64.0,57.0,29.90,NW,315,2.0,2.0,79,0.00,,,0.00,,2013-03-01 07:52:00,
2013-03-01 03:02:00,64.0,57.0,29.90,NW,309,1.0,1.0,79,0.00,,,0.00,,2013-03-01 08:02:00,
2013-03-01 03:12:00,64.0,57.0,29.90,NW,309,1.0,1.0,79,0.00,,,0.00,,2013-03-01 08:12:00,
2013-03-01 03:22:00,64.0,57.0,29.90,West,276,1.0,5.0,79,0.00,,,0.00,,2013-03-01 08:22:00,
2013-03-01 03:32:00,64.0,58.0,29.90,WNW,285,3.0,3.0,80,0.00,,,0.00,,2013-03-01 08:32:00,
2013-03-01 03:42:00,64.0,58.0,29.90,WNW,285,3.0,3.0,80,0.00,,,0.00,,2013-03-01 08:42:00,
2013-03-01 03:53:00,64.0,58.0,29.91,WNW,301,3.0,3.0,80,0.00,,,0.00,,2013-03-01 08:53:00,
2013-03-01 04:02:00,64.0,58.0,29.91,WNW,290,2.0,0.0,80,0.00,,,0.00,,2013-03-01 09:02:00,
2013-03-01 04:12:00,64.0,58.0,29.91,WNW,290,2.0,0.0,80,0.00,,,0.00,,2013-03-01 09:12:00,
2013-03-01 04:22:00,63.0,57.0,29.90,NW,305,4.0,4.0,81,0.00,,,0.00,,2013-03-01 09:22:00,
2013-03-01 04:32:00,63.0,57.0,29.90,WNW,290,2.0,2.0,81,0.00,,,0.00,,2013-03-01 09:32:00,
2013-03-01 04:42:00,63.0,57.0,29.90,WNW,290,2.0,2.0,81,0.00,,,0.00,,2013-03-01 09:42:00,
2013-03-01 04:52:00,63.0,57.0,29.91,WNW,298,2.0,6.0,82,0.00,,,0.00,,2013-03-01 09:52:00,
2013-03-01 05:02:00,63.0,56.0,29.91,NNW,329,2.0,5.0,78,0.00,,,0.00,,2013-03-01 10:02:00,
2013-03-01 05:11:00,63.0,56.0,29.91,NNW,329,2.0,5.0,78,0.00,,,0.00,,2013-03-01 10:11:00,
2013-03-01 05:22:00,63.0,56.0,29.91,WNW,294,3.0,3.0,77,0.00,,,0.00,,2013-03-01 10:22:00,
2013-03-01 05:32:00,63.0,56.0,29.91,NNW,328,0.0,0.0,78,0.00,,,0.00,,2013-03-01 10:32:00,
2013-03-01 05:42:00,63.0,56.0,29.91,NNW,328,0.0,0.0,78,0.00,,,0.00,,2013-03-01 10:42:00,
2013-03-01 05:53:00,63.0,56.0,29.92,WNW,284,1.0,1.0,78,0.00,,,0.00,,2013-03-01 10:53:00,
2013-03-01 06:01:00,63.0,56.0,29.92,NW,308,3.0,3.0,77,0.00,,,0.00,,2013-03-01 11:01:00,
2013-03-01 06:11:00,63.0,56.0,29.92,NW,308,3.0,3.0,77,0.00,,,0.00,,2013-03-01 11:11:00,
2013-03-01 06:22:00,62.0,54.0,29.92,NNE,14,5.0,5.0,75,0.00,,,0.00,,2013-03-01 11:22:00,
2013-03-01 06:32:00,62.0,53.0,29.93,NW,326,5.0,5.0,72,0.00,,,0.00,,2013-03-01 11:32:00,
2013-03-01 06:42:00,62.0,53.0,29.93,NW,326,5.0,5.0,72,0.00,,,0.00,,2013-03-01 11:42:00,
2013-03-01 06:52:00,62.0,54.0,29.93,NNW,346,2.0,2.0,74,0.00,,,0.00,,2013-03-01 11:52:00,
2013-03-01 07:02:00,62.0,54.0,29.93,NNW,347,3.0,7.0,75,0.00,,,0.00,,2013-03-01 12:02:00,
2013-03-01 07:11:00,62.0,54.0,29.93,NNW,347,3.0,7.0,75,0.00,,,0.00,,2013-03-01 12:11:00,
2013-03-01 07:21:00,62.0,54.0,29.93,North,359,6.0,6.0,76,0.00,,,0.00,,2013-03-01 12:21:00,
2013-03-01 07:32:00,61.0,52.0,29.94,NW,308,6.0,6.0,71,0.00,,,0.00,,2013-03-01 12:32:00,
2013-03-01 07:42:00,61.0,52.0,29.94,NW,308,6.0,6.0,71,0.00,,,0.00,,2013-03-01 12:42:00,
2013-03-01 07:52:00,61.0,52.0,29.95,WNW,298,2.0,4.0,72,0.00,,,0.00,,2013-03-01 12:52:00,
2013-03-01 08:01:00,61.0,51.0,29.96,NNW,347,8.0,8.0,70,0.00,,,0.00,,2013-03-01 13:01:00,
2013-03-01 08:11:00,61.0,51.0,29.96,NNW,342,7.0,7.0,69,0.00,,,0.00,,2013-03-01 13:11:00,
2013-03-01 08:22:00,61.0,51.0,29.96,NNW,342,7.0,7.0,69,0.00,,,0.00,,2013-03-01 13:22:00,
2013-03-01 08:32:00,61.0,50.0,29.95,NNW,328,6.0,6.0,68,0.00,,,0.00,,2013-03-01 13:32:00,
2013-03-01 08:42:00,61.0,50.0,29.95,NNW,328,6.0,6.0,68,0.00,,,0.00,,2013-03-01 13:42:00,
2013-03-01 08:52:00,61.0,50.0,29.95,NNW,340,7.0,7.0,66,0.00,,,0.00,,2013-03-01 13:52:00,
2013-03-01 09:01:00,61.0,50.0,29.95,NW,322,3.0,3.0,67,0.00,,,0.00,,2013-03-01 14:01:00,
2013-03-01 09:11:00,61.0,50.0,29.95,NW,322,3.0,3.0,67,0.00,,,0.00,,2013-03-01 14:11:00,
2013-03-01 09:21:00,61.0,50.0,29.95,NNW,339,6.0,6.0,67,0.00,,,0.00,,2013-03-01 14:21:00,
2013-03-01 09:32:00,61.0,50.0,29.96,North,359,7.0,7.0,67,0.00,,,0.00,,2013-03-01 14:32:00,
2013-03-01 09:42:00,61.0,50.0,29.96,North,359,7.0,7.0,67,0.00,,,0.00,,2013-03-01 14:42:00,
2013-03-01 09:52:00,62.0,51.0,29.97,NNW,332,4.0,5.0,68,0.00,,,0.00,,2013-03-01 14:52:00,
2013-03-01 10:02:00,62.0,52.0,29.96,NNE,23,4.0,4.0,69,0.00,,,0.00,,2013-03-01 15:02:00,
2013-03-01 10:11:00,61.0,51.0,29.97,NNE,20,7.0,7.0,69,0.00,,,0.00,,2013-03-01 15:11:00,
2013-03-01 10:21:00,61.0,51.0,29.97,NNE,20,7.0,7.0,69,0.00,,,0.00,,2013-03-01 15:21:00,
2013-03-01 10:32:00,61.0,52.0,29.97,NNW,336,7.0,7.0,71,0.00,,,0.00,,2013-03-01 15:32:00,
2013-03-01 10:42:00,61.0,52.0,29.97,NNW,336,7.0,7.0,71,0.00,,,0.00,,2013-03-01 15:42:00,
2013-03-01 10:52:00,61.0,52.0,29.96,NNW,329,4.0,4.0,72,0.00,,,0.00,,2013-03-01 15:52:00,
2013-03-01 11:01:00,62.0,51.0,29.96,NNE,23,4.0,4.0,67,0.00,,,0.00,,2013-03-01 16:01:00,
2013-03-01 11:11:00,62.0,51.0,29.96,NNE,23,4.0,4.0,67,0.00,,,0.00,,2013-03-01 16:11:00,
2013-03-01 11:21:00,62.0,50.0,29.97,NW,309,5.0,5.0,65,0.00,,,0.00,,2013-03-01 16:21:00,
2013-03-01 11:32:00,63.0,51.0,29.96,NNW,345,4.0,5.0,65,0.00,,,0.00,,2013-03-01 16:32:00,
2013-03-01 11:42:00,63.0,51.0,29.96,NNW,345,4.0,5.0,65,0.00,,,0.00,,2013-03-01 16:42:00,
2013-03-01 11:52:00,62.0,50.0,29.96,North,359,4.0,5.0,64,0.00,,,0.00,,2013-03-01 16:52:00,
2013-03-01 12:01:00,63.0,50.0,29.96,NNW,332,5.0,5.0,63,0.00,,,0.00,,2013-03-01 17:01:00,
2013-03-01 12:11:00,63.0,50.0,29.96,NNW,340,1.0,2.0,63,0.00,,,0.00,,2013-03-01 17:11:00,
2013-03-01 12:21:00,63.0,50.0,29.96,NNW,340,1.0,2.0,63,0.00,,,0.00,,2013-03-01 17:21:00,
2013-03-01 12:32:00,63.0,51.0,29.95,NNW,335,2.0,3.0,64,0.00,,,0.00,,2013-03-01 17:32:00,
2013-03-01 12:42:00,63.0,50.0,29.95,NW,319,5.0,5.0,63,0.00,,,0.00,,2013-03-01 17:42:00,
2013-03-01 12:52:00,63.0,50.0,29.95,NW,319,5.0,5.0,63,0.00,,,0.00,,2013-03-01 17:52:00,
2013-03-01 13:01:00,64.0,50.0,29.94,NW,318,5.0,5.0,61,0.00,,,0.00,,2013-03-01 18:01:00,
2013-03-01 13:12:00,64.0,50.0,29.94,NW,318,5.0,5.0,61,0.00,,,0.00,,2013-03-01 18:12:00,
2013-03-01 13:22:00,65.0,50.0,29.94,WNW,287,1.0,4.0,59,0.00,,,0.00,,2013-03-01 18:22:00,
2013-03-01 13:32:00,65.0,49.0,29.93,West,276,6.0,8.0,56,0.00,,,0.00,,2013-03-01 18:32:00,
2013-03-01 13:42:00,65.0,49.0,29.93,West,281,7.0,7.0,57,0.00,,,0.00,,2013-03-01 18:42:00,
2013-03-01 13:52:00,65.0,49.0,29.93,West,281,7.0,7.0,57,0.00,,,0.00,,2013-03-01 18:52:00,
2013-03-01 14:01:00,65.0,49.0,29.92,NW,308,4.0,4.0,57,0.00,,,0.00,,2013-03-01 19:01:00,
2013-03-01 14:11:00,65.0,49.0,29.92,NW,308,4.0,4.0,57,0.00,,,0.00,,2013-03-01 19:11:00,
2013-03-01 14:21:00,64.0,48.0,29.91,WNW,287,5.0,5.0,57,0.00,,,0.00,,2013-03-01 19:21:00,
2013-03-01 14:32:00,64.0,48.0,29.91,NW,322,3.0,3.0,56,0.00,,,0.00,,2013-03-01 19:32:00,
2013-03-01 14:42:00,64.0,48.0,29.91,NW,322,3.0,3.0,56,0.00,,,0.00,,2013-03-01 19:42:00,
2013-03-01 14:52:00,64.0,50.0,29.91,NW,307,6.0,6.0,60,0.00,,,0.00,,2013-03-01 19:52:00,
2013-03-01 15:01:00,64.0,52.0,29.90,North,1,5.0,5.0,64,0.00,,,0.00,,2013-03-01 20:01:00,
2013-03-01 15:11:00,64.0,52.0,29.90,North,1,5.0,5.0,64,0.00,,,0.00,,2013-03-01 20:11:00,
2013-03-01 15:21:00,64.0,52.0,29.90,West,270,4.0,4.0,65,0.00,,,0.00,,2013-03-01 20:21:00,
2013-03-01 15:32:00,64.0,52.0,29.90,WNW,300,6.0,6.0,64,0.00,,,0.00,,2013-03-01 20:32:00,
2013-03-01 15:42:00,64.0,52.0,29.90,WNW,300,6.0,6.0,64,0.00,,,0.00,,2013-03-01 20:42:00,
2013-03-01 15:52:00,63.0,49.0,29.90,NNW,336,4.0,5.0,60,0.00,,,0.00,,2013-03-01 20:52:00,
2013-03-01 16:01:00,63.0,49.0,29.90,NW,311,6.0,9.0,60,0.00,,,0.00,,2013-03-01 21:01:00,
2013-03-01 16:11:00,63.0,48.0,29.90,North,356,4.0,4.0,59,0.00,,,0.00,,2013-03-01 21:11:00,
2013-03-01 16:21:00,63.0,48.0,29.90,North,356,4.0,4.0,59,0.00,,,0.00,,2013-03-01 21:21:00,
2013-03-01 16:32:00,63.0,48.0,29.91,NW,309,4.0,4.0,59,0.00,,,0.00,,2013-03-01 21:32:00,
2013-03-01 16:42:00,62.0,48.0,29.91,WNW,287,4.0,5.0,60,0.00,,,0.00,,2013-03-01 21:42:00,
2013-03-01 16:51:00,62.0,48.0,29.91,WNW,287,4.0,5.0,60,0.00,,,0.00,,2013-03-01 21:51:00,
2013-03-01 17:01:00,62.0,48.0,29.91,WNW,298,5.0,7.0,61,0.00,,,0.00,,2013-03-01 22:01:00,
2013-03-01 17:11:00,62.0,48.0,29.91,NW,325,3.0,4.0,61,0.00,,,0.00,,2013-03-01 22:11:00,
2013-03-01 17:22:00,62.0,48.0,29.91,NW,325,3.0,4.0,61,0.00,,,0.00,,2013-03-01 22:22:00,
2013-03-01 17:32:00,62.0,49.0,29.92,NNW,339,2.0,3.0,62,0.00,,,0.00,,2013-03-01 22:32:00,
2013-03-01 17:42:00,62.0,49.0,29.92,NNW,339,2.0,3.0,62,0.00,,,0.00,,2013-03-01 22:42:00,
2013-03-01 17:52:00,62.0,50.0,29.92,WNW,300,1.0,5.0,64,0.00,,,0.00,,2013-03-01 22:52:00,
2013-03-01 18:01:00,62.0,50.0,29.93,NNW,330,0.0,3.0,64,0.00,,,0.00,,2013-03-01 23:01:00,
2013-03-01 18:11:00,62.0,50.0,29.93,NNW,330,0.0,3.0,64,0.00,,,0.00,,2013-03-01 23:11:00,
2013-03-01 18:21:00,62.0,50.0,29.93,WNW,295,3.0,3.0,64,0.00,,,0.00,,2013-03-01 23:21:00,
2013-03-01 18:32:00,62.0,51.0,29.94,NW,308,3.0,3.0,66,0.00,,,0.00,,2013-03-01 23:32:00,
2013-03-01 18:41:00,62.0,51.0,29.94,NW,308,3.0,3.0,66,0.00,,,0.00,,2013-03-01 23:41:00,
2013-03-01 18:52:00,62.0,51.0,29.94,NNW,345,4.0,4.0,67,0.00,,,0.00,,2013-03-01 23:52:00,
2013-03-01 19:02:00,62.0,51.0,29.94,NNW,346,3.0,3.0,66,0.00,,,0.00,,2013-03-02 00:02:00,
2013-03-01 19:12:00,62.0,51.0,29.94,NNW,346,3.0,3.0,66,0.00,,,0.00,,2013-03-02 00:12:00,
2013-03-01 19:22:00,61.0,50.0,29.95,NW,307,5.0,8.0,68,0.00,,,0.00,,2013-03-02 00:22:00,
2013-03-01 19:32:00,61.0,51.0,29.95,NW,321,4.0,4.0,69,0.00,,,0.00,,2013-03-02 00:32:00,
2013-03-01 19:42:00,61.0,51.0,29.95,NW,321,4.0,4.0,69,0.00,,,0.00,,2013-03-02 00:42:00,
2013-03-01 19:52:00,61.0,50.0,29.95,WNW,293,5.0,5.0,68,0.00,,,0.00,,2013-03-02 00:52:00,
2013-03-01 20:01:00,61.0,50.0,29.95,WNW,295,2.0,3.0,68,0.00,,,0.00,,2013-03-02 01:01:00,
2013-03-01 20:11:00,61.0,50.0,29.95,WNW,295,2.0,3.0,68,0.00,,,0.00,,2013-03-02 01:11:00,
2013-03-01 20:21:00,61.0,50.0,29.95,West,281,4.0,4.0,68,0.00,,,0.00,,2013-03-02 01:21:00,
2013-03-01 20:32:00,61.0,50.0,29.96,NNW,345,2.0,2.0,68,0.00,,,0.00,,2013-03-02 01:32:00,
2013-03-01 20:41:00,61.0,50.0,29.96,NNW,345,2.0,2.0,68,0.00,,,0.00,,2013-03-02 01:41:00,
2013-03-01 20:52:00,61.0,51.0,29.96,NNW,347,3.0,3.0,69,0.00,,,0.00,,2013-03-02 01:52:00,
2013-03-01 21:01:00,60.0,50.0,29.96,NW,314,2.0,2.0,69,0.00,,,0.00,,2013-03-02 02:01:00,
2013-03-01 21:11:00,60.0,50.0,29.96,NW,314,2.0,2.0,69,0.00,,,0.00,,2013-03-02 02:11:00,
2013-03-01 21:22:00,60.0,49.0,29.96,NW,322,4.0,4.0,68,0.00,,,0.00,,2013-03-02 02:22:00,
2013-03-01 21:32:00,60.0,50.0,29.97,NW,319,2.0,2.0,69,0.00,,,0.00,,2013-03-02 02:32:00,
2013-03-01 21:42:00,60.0,50.0,29.97,NW,319,2.0,2.0,69,0.00,,,0.00,,2013-03-02 02:42:00,
2013-03-01 21:52:00,60.0,50.0,29.97,NNW,340,7.0,7.0,69,0.00,,,0.00,,2013-03-02 02:52:00,
2013-03-01 22:02:00,60.0,50.0,29.98,WNW,295,4.0,8.0,69,0.00,,,0.00,,2013-03-02 03:02:00,
2013-03-01 22:11:00,60.0,50.0,29.98,WNW,295,4.0,8.0,69,0.00,,,0.00,,2013-03-02 03:11:00,
2013-03-01 22:21:00,60.0,50.0,29.98,WNW,302,3.0,7.0,69,0.00,,,0.00,,2013-03-02 03:21:00,
2013-03-01 22:32:00,59.0,49.0,29.98,NW,321,5.0,5.0,69,0.00,,,0.00,,2013-03-02 03:32:00,
2013-03-01 22:42:00,59.0,49.0,29.98,NW,321,5.0,5.0,69,0.00,,,0.00,,2013-03-02 03:42:00,
2013-03-01 22:52:00,59.0,50.0,29.98,NW,318,4.0,6.0,71,0.00,,,0.00,,2013-03-02 03:52:00,
2013-03-01 23:01:00,59.0,50.0,29.97,WNW,293,5.0,5.0,71,0.00,,,0.00,,2013-03-02 04:01:00,
2013-03-01 23:11:00,59.0,50.0,29.97,NW,308,4.0,4.0,73,0.00,,,0.00,,2013-03-02 04:11:00,
2013-03-01 23:22:00,59.0,50.0,29.97,NW,308,4.0,4.0,73,0.00,,,0.00,,2013-03-02 04:22:00,
2013-03-01 23:32:00,59.0,50.0,29.96,NW,322,3.0,6.0,73,0.00,,,0.00,,2013-03-02 04:32:00,
2013-03-01 23:42:00,59.0,50.0,29.96,NW,322,3.0,6.0,73,0.00,,,0.00,,2013-03-02 04:42:00,
2013-03-01 23:52:00,59.0,51.0,29.96,NW,316,3.0,8.0,74,0.00,,,0.00,,2013-03-02 04:52:00,